When you browse on this site, cookies collect data to enhance your experience and personalize the content and advertising you see.
Visit our Privacy Policy to learn more. By continuing to use the site, you agree to this use of cookies and data.
  • In Portugal
  • List of Countries
  • For 7 days
  • Water Temperature
  • Weather Map
  • Weather Widgets
  • user-avatar
    Login

    Hourly Weather Bridel

    Today, 1 April, Wednesday

    Time Temperature Precipitation Wind Pressure Humidity
    00:00 0°C° 0 mm 1 mps 737 mmHg 72%
    01:00 0°C° 0 mm 1 mps 737 mmHg 73%
    02:00 0°C° 0 mm 1 mps 736 mmHg 73%
    03:00 0°C° 0 mm 1 mps 736 mmHg 73%
    04:00 0°C° 0 mm 1 mps 736 mmHg 72%
    05:00 0°C° 0 mm 1 mps 736 mmHg 70%
    06:00 +1°C° 0 mm 1 mps 736 mmHg 66%
    07:00 +3°C° 0 mm 1 mps 736 mmHg 60%
    08:00 +3°C° 0 mm 2 mps 736 mmHg 54%
    09:00 +5°C° 0 mm 2 mps 736 mmHg 48%
    10:00 +6°C° 0 mm 2 mps 735 mmHg 45%
    11:00 +8°C° 0 mm 2 mps 735 mmHg 43%
    12:00 +9°C° 0 mm 2 mps 735 mmHg 40%
    13:00 +9°C° 0 mm 2 mps 734 mmHg 41%
    14:00 +10°C° 0 mm 1 mps 733 mmHg 41%
    15:00 +11°C° 0 mm 1 mps 733 mmHg 42%
    16:00 +9°C° 0 mm 1 mps 732 mmHg 48%
    17:00 +7°C° 0 mm 1 mps 732 mmHg 55%
    18:00 +5°C° 0 mm 1 mps 732 mmHg 61%
    19:00 +5°C° 0 mm 1 mps 732 mmHg 65%
    20:00 +4°C° 0 mm 1 mps 732 mmHg 69%
    21:00 +2°C° 0 mm 2 mps 732 mmHg 73%
    22:00 +1°C° 0 mm 2 mps 732 mmHg 73%
    23:00 +2°C° 0 mm 1 mps 732 mmHg 73%

    Tomorrow, 2 April, Thursday

    Time Temperature Precipitation Wind Pressure Humidity
    00:00 +1°C° 0 mm 1 mps 732 mmHg 73%
    01:00 +1°C° 0 mm 1 mps 731 mmHg 74%
    02:00 +1°C° 0 mm 1 mps 731 mmHg 75%
    03:00 0°C° 0 mm 1 mps 731 mmHg 76%
    04:00 +1°C° 0 mm 1 mps 731 mmHg 76%
    05:00 +1°C° 0 mm 1 mps 731 mmHg 76%
    06:00 +1°C° 0 mm 1 mps 731 mmHg 76%
    07:00 +3°C° 0 mm 1 mps 731 mmHg 69%
    08:00 +6°C° 0 mm 1 mps 731 mmHg 62%
    09:00 +7°C° 0 mm 0 mps 731 mmHg 55%
    10:00 +9°C° 0 mm 1 mps 731 mmHg 53%
    11:00 +10°C° 0 mm 1 mps 731 mmHg 50%
    12:00 +10°C° 0 mm 2 mps 730 mmHg 48%
    13:00 +10°C° 0 mm 2 mps 730 mmHg 49%
    14:00 +10°C° 0 mm 3 mps 729 mmHg 50%
    15:00 +10°C° 0 mm 4 mps 729 mmHg 51%
    16:00 +7°C° 0 mm 4 mps 729 mmHg 58%
    17:00 +7°C° 0 mm 3 mps 729 mmHg 64%
    18:00 +4°C° 0 mm 3 mps 729 mmHg 71%
    19:00 +3°C° 0 mm 3 mps 729 mmHg 74%
    20:00 +3°C° 0 mm 2 mps 729 mmHg 78%
    21:00 +2°C° 0 mm 2 mps 729 mmHg 82%
    22:00 +2°C° 0 mm 2 mps 729 mmHg 84%
    23:00 +2°C° 0 mm 2 mps 729 mmHg 86%

    Day after tomorrow, 3 April, Friday

    Time Temperature Precipitation Wind Pressure Humidity
    00:00 +2°C° 0 mm 2 mps 729 mmHg 88%
    01:00 +2°C° 0 mm 2 mps 729 mmHg 88%
    02:00 +3°C° 0 mm 2 mps 729 mmHg 89%
    03:00 +2°C° 0 mm 3 mps 729 mmHg 89%
    04:00 +2°C° 0.1 mm 3 mps 730 mmHg 90%
    05:00 +2°C° 0.1 mm 3 mps 730 mmHg 92%
    06:00 +2°C° 0.1 mm 3 mps 730 mmHg 93%
    07:00 +3°C° 0.2 mm 3 mps 731 mmHg 92%
    08:00 +3°C° 0.2 mm 3 mps 731 mmHg 91%
    09:00 +4°C° 0.2 mm 3 mps 731 mmHg 91%
    10:00 +5°C° 0.1 mm 3 mps 731 mmHg 85%
    11:00 +7°C° 0.1 mm 3 mps 732 mmHg 80%
    12:00 +8°C° 0.1 mm 3 mps 732 mmHg 75%
    13:00 +8°C° 0.1 mm 3 mps 732 mmHg 73%
    14:00 +9°C° 0.1 mm 3 mps 732 mmHg 72%
    15:00 +9°C° 0.1 mm 3 mps 731 mmHg 70%
    16:00 +8°C° 0.1 mm 2 mps 732 mmHg 75%
    17:00 +7°C° 0.1 mm 2 mps 732 mmHg 80%
    18:00 +7°C° 0.1 mm 1 mps 732 mmHg 85%
    19:00 +5°C° 0 mm 2 mps 733 mmHg 86%
    20:00 +4°C° 0 mm 2 mps 733 mmHg 88%
    21:00 +3°C° 0 mm 2 mps 733 mmHg 90%
    22:00 +3°C° 0 mm 2 mps 734 mmHg 90%
    23:00 +3°C° 0 mm 1 mps 734 mmHg 90%

    4 April, Saturday

    Time Temperature Precipitation Wind Pressure Humidity
    00:00 +2°C° 0 mm 1 mps 734 mmHg 90%
    01:00 +2°C° 0 mm 1 mps 734 mmHg 90%
    02:00 +1°C° 0 mm 1 mps 734 mmHg 90%
    03:00 +1°C° 0 mm 1 mps 734 mmHg 90%
    04:00 +1°C° 0 mm 1 mps 735 mmHg 88%
    05:00 +1°C° 0 mm 1 mps 735 mmHg 87%
    06:00 +2°C° 0 mm 1 mps 735 mmHg 86%
    07:00 +4°C° 0 mm 1 mps 736 mmHg 79%
    08:00 +6°C° 0 mm 1 mps 736 mmHg 73%
    09:00 +8°C° 0 mm 1 mps 736 mmHg 66%
    10:00 +9°C° 0 mm 1 mps 736 mmHg 62%
    11:00 +11°C° 0 mm 1 mps 736 mmHg 58%
    12:00 +12°C° 0 mm 1 mps 736 mmHg 54%
    13:00 +13°C° 0 mm 1 mps 736 mmHg 53%
    14:00 +13°C° 0 mm 1 mps 736 mmHg 52%
    15:00 +13°C° 0 mm 1 mps 735 mmHg 51%
    16:00 +12°C° 0 mm 1 mps 735 mmHg 57%
    17:00 +10°C° 0 mm 1 mps 735 mmHg 63%
    18:00 +9°C° 0 mm 1 mps 735 mmHg 69%
    19:00 +7°C° 0 mm 2 mps 735 mmHg 72%
    20:00 +6°C° 0 mm 2 mps 735 mmHg 74%
    21:00 +4°C° 0 mm 3 mps 736 mmHg 77%
    22:00 +4°C° 0 mm 3 mps 736 mmHg 79%
    23:00 +4°C° 0 mm 3 mps 736 mmHg 81%

    5 April, Sunday

    Time Temperature Precipitation Wind Pressure Humidity
    00:00 +4°C° 0 mm 3 mps 735 mmHg 82%
    01:00 +3°C° 0 mm 3 mps 735 mmHg 84%
    02:00 +3°C° 0 mm 3 mps 735 mmHg 85%
    03:00 +3°C° 0 mm 3 mps 735 mmHg 87%
    04:00 +3°C° 0 mm 3 mps 735 mmHg 87%
    05:00 +3°C° 0 mm 3 mps 735 mmHg 86%
    06:00 +3°C° 0 mm 3 mps 735 mmHg 86%
    07:00 +5°C° 0 mm 3 mps 735 mmHg 80%
    08:00 +7°C° 0 mm 4 mps 735 mmHg 74%
    09:00 +10°C° 0 mm 4 mps 735 mmHg 67%
    10:00 +12°C° 0 mm 5 mps 735 mmHg 64%
    11:00 +13°C° 0 mm 5 mps 735 mmHg 61%
    12:00 +15°C° 0 mm 5 mps 735 mmHg 58%
    13:00 +15°C° 0 mm 5 mps 734 mmHg 57%
    14:00 +17°C° 0 mm 4 mps 734 mmHg 56%
    15:00 +17°C° 0 mm 4 mps 734 mmHg 56%
    16:00 +15°C° 0 mm 4 mps 733 mmHg 62%
    17:00 +13°C° 0 mm 3 mps 733 mmHg 69%
    18:00 +12°C° 0 mm 3 mps 733 mmHg 75%
    19:00 +11°C° 0 mm 3 mps 733 mmHg 76%
    20:00 +10°C° 0 mm 2 mps 733 mmHg 76%
    21:00 +8°C° 0 mm 2 mps 733 mmHg 76%
    22:00 +8°C° 0 mm 2 mps 733 mmHg 78%
    23:00 +8°C° 0 mm 2 mps 733 mmHg 80%

    6 April, Monday

    Time Temperature Precipitation Wind Pressure Humidity
    00:00 +7°C° 0 mm 2 mps 734 mmHg 81%
    01:00 +7°C° 0 mm 2 mps 734 mmHg 83%
    02:00 +7°C° 0 mm 2 mps 734 mmHg 84%
    03:00 +6°C° 0 mm 2 mps 734 mmHg 86%
    04:00 +6°C° 0 mm 2 mps 734 mmHg 85%
    05:00 +6°C° 0 mm 2 mps 734 mmHg 84%
    06:00 +6°C° 0 mm 2 mps 734 mmHg 83%
    07:00 +8°C° 0 mm 4 mps 735 mmHg 73%
    08:00 +10°C° 0 mm 5 mps 735 mmHg 62%
    09:00 +13°C° 0 mm 6 mps 735 mmHg 52%
    10:00 +14°C° 0 mm 6 mps 735 mmHg 51%
    11:00 +15°C° 0 mm 7 mps 735 mmHg 50%
    12:00 +16°C° 0 mm 7 mps 736 mmHg 49%
    13:00 +16°C° 0 mm 6 mps 736 mmHg 50%
    14:00 +16°C° 0 mm 6 mps 736 mmHg 51%
    15:00 +16°C° 0 mm 5 mps 736 mmHg 52%
    16:00 +15°C° 0 mm 4 mps 736 mmHg 60%
    17:00 +13°C° 0 mm 3 mps 736 mmHg 68%
    18:00 +12°C° 0 mm 2 mps 736 mmHg 75%
    19:00 +10°C° 0 mm 2 mps 737 mmHg 79%
    20:00 +9°C° 0 mm 2 mps 737 mmHg 83%
    21:00 +9°C° 0 mm 1 mps 738 mmHg 87%
    22:00 +9°C° 0 mm 1 mps 738 mmHg 88%
    23:00 +9°C° 0 mm 1 mps 738 mmHg 89%
    Show more